When you browse on this site, cookies collect data to enhance your experience and personalize the content and advertising you see.
Visit our Privacy Policy to learn more. By continuing to use the site, you agree to this use of cookies and data.
  • en Suisse
  • Liste des pays
  • À 7 jours
  • Température de l'eau
  • Carte satellitaire
  • Carte météo
  • Widgets météo
  • user-avatar
    Se connecter

    Météo par heure à Neuquén

    Ce jour, 23 Mai, Jeudi

    Heure Température Précipitation Vent Pression Humidité
    00:00 +11°C° 0 mm 3 m/s 736 mmHg 32%
    01:00 +11°C° 0 mm 3 m/s 735 mmHg 32%
    02:00 +11°C° 0 mm 3 m/s 735 mmHg 31%
    03:00 +10°C° 0 mm 3 m/s 735 mmHg 31%
    04:00 +10°C° 0 mm 3 m/s 734 mmHg 31%
    05:00 +10°C° 0 mm 3 m/s 735 mmHg 30%
    06:00 +10°C° 0 mm 3 m/s 735 mmHg 29%
    07:00 +10°C° 0 mm 3 m/s 735 mmHg 28%
    08:00 +12°C° 0 mm 3 m/s 735 mmHg 25%
    09:00 +14°C° 0 mm 3 m/s 735 mmHg 21%
    10:00 +18°C° 0 mm 2 m/s 735 mmHg 17%
    11:00 +19°C° 0 mm 2 m/s 735 mmHg 16%
    12:00 +20°C° 0 mm 2 m/s 735 mmHg 15%
    13:00 +21°C° 0 mm 2 m/s 734 mmHg 13%
    14:00 +20°C° 0 mm 2 m/s 734 mmHg 15%
    15:00 +20°C° 0 mm 1 m/s 734 mmHg 17%
    16:00 +19°C° 0 mm 1 m/s 733 mmHg 19%
    17:00 +18°C° 0 mm 1 m/s 733 mmHg 20%
    18:00 +16°C° 0 mm 1 m/s 733 mmHg 21%
    19:00 +15°C° 0 mm 2 m/s 733 mmHg 22%
    20:00 +15°C° 0 mm 2 m/s 733 mmHg 22%
    21:00 +15°C° 0 mm 2 m/s 733 mmHg 22%
    22:00 +14°C° 0 mm 2 m/s 733 mmHg 22%
    23:00 +14°C° 0 mm 2 m/s 732 mmHg 22%

    Demain, 24 Mai, Vendredi

    Heure Température Précipitation Vent Pression Humidité
    00:00 +14°C° 0 mm 2 m/s 732 mmHg 22%
    01:00 +14°C° 0 mm 2 m/s 732 mmHg 22%
    02:00 +13°C° 0 mm 2 m/s 731 mmHg 22%
    03:00 +13°C° 0 mm 2 m/s 731 mmHg 23%
    04:00 +13°C° 0 mm 2 m/s 731 mmHg 23%
    05:00 +12°C° 0 mm 2 m/s 731 mmHg 23%
    06:00 +12°C° 0 mm 2 m/s 730 mmHg 23%
    07:00 +12°C° 0 mm 2 m/s 730 mmHg 23%
    08:00 +14°C° 0 mm 2 m/s 731 mmHg 20%
    09:00 +16°C° 0 mm 2 m/s 731 mmHg 18%
    10:00 +18°C° 0 mm 2 m/s 731 mmHg 15%
    11:00 +19°C° 0 mm 2 m/s 730 mmHg 14%
    12:00 +20°C° 0 mm 2 m/s 730 mmHg 13%
    13:00 +20°C° 0 mm 2 m/s 729 mmHg 13%
    14:00 +19°C° 0 mm 2 m/s 729 mmHg 14%
    15:00 +18°C° 0 mm 2 m/s 728 mmHg 16%
    16:00 +17°C° 0 mm 2 m/s 728 mmHg 17%
    17:00 +17°C° 0 mm 2 m/s 728 mmHg 18%
    18:00 +16°C° 0 mm 1 m/s 728 mmHg 18%
    19:00 +15°C° 0 mm 1 m/s 728 mmHg 19%
    20:00 +15°C° 0 mm 1 m/s 728 mmHg 19%
    21:00 +15°C° 0 mm 1 m/s 728 mmHg 19%
    22:00 +14°C° 0 mm 1 m/s 728 mmHg 18%
    23:00 +14°C° 0 mm 1 m/s 728 mmHg 18%

    Après-demain, 25 Mai, Samedi

    Heure Température Précipitation Vent Pression Humidité
    00:00 +14°C° 0 mm 2 m/s 728 mmHg 18%
    01:00 +14°C° 0 mm 2 m/s 728 mmHg 18%
    02:00 +14°C° 0 mm 2 m/s 727 mmHg 19%
    03:00 +12°C° 0 mm 3 m/s 727 mmHg 20%
    04:00 +12°C° 0 mm 3 m/s 727 mmHg 21%
    05:00 +12°C° 0 mm 3 m/s 727 mmHg 23%
    06:00 +11°C° 0 mm 3 m/s 727 mmHg 25%
    07:00 +11°C° 0 mm 3 m/s 728 mmHg 27%
    08:00 +12°C° 0 mm 3 m/s 728 mmHg 27%
    09:00 +14°C° 0 mm 3 m/s 728 mmHg 26%
    10:00 +16°C° 0 mm 3 m/s 728 mmHg 26%
    11:00 +16°C° 0 mm 3 m/s 728 mmHg 25%
    12:00 +17°C° 0 mm 2 m/s 727 mmHg 24%
    13:00 +18°C° 0 mm 2 m/s 727 mmHg 24%
    14:00 +17°C° 0 mm 2 m/s 727 mmHg 25%
    15:00 +16°C° 0 mm 3 m/s 727 mmHg 26%
    16:00 +16°C° 0 mm 3 m/s 727 mmHg 27%
    17:00 +15°C° 0 mm 2 m/s 727 mmHg 29%
    18:00 +14°C° 0 mm 2 m/s 727 mmHg 32%
    19:00 +14°C° 0 mm 1 m/s 728 mmHg 34%
    20:00 +14°C° 0 mm 2 m/s 728 mmHg 34%
    21:00 +14°C° 0 mm 2 m/s 728 mmHg 34%
    22:00 +13°C° 0 mm 3 m/s 729 mmHg 34%
    23:00 +14°C° 0 mm 2 m/s 729 mmHg 34%

    26 Mai, Dimanche

    Heure Température Précipitation Vent Pression Humidité
    00:00 +14°C° 0 mm 2 m/s 729 mmHg 34%
    01:00 +13°C° 0 mm 2 m/s 729 mmHg 34%
    02:00 +13°C° 0 mm 2 m/s 729 mmHg 35%
    03:00 +12°C° 0 mm 3 m/s 729 mmHg 36%
    04:00 +11°C° 0 mm 3 m/s 729 mmHg 37%
    05:00 +11°C° 0 mm 4 m/s 730 mmHg 37%
    06:00 +11°C° 0 mm 4 m/s 730 mmHg 38%
    07:00 +10°C° 0 mm 5 m/s 731 mmHg 39%
    08:00 +12°C° 0 mm 5 m/s 731 mmHg 35%
    09:00 +13°C° 0 mm 5 m/s 731 mmHg 32%
    10:00 +15°C° 0 mm 5 m/s 732 mmHg 28%
    11:00 +15°C° 0 mm 5 m/s 732 mmHg 28%
    12:00 +15°C° 0 mm 4 m/s 731 mmHg 27%
    13:00 +17°C° 0 mm 4 m/s 731 mmHg 27%
    14:00 +16°C° 0 mm 3 m/s 731 mmHg 28%
    15:00 +16°C° 0 mm 2 m/s 731 mmHg 29%
    16:00 +16°C° 0 mm 1 m/s 731 mmHg 31%
    17:00 +15°C° 0 mm 2 m/s 731 mmHg 33%
    18:00 +15°C° 0 mm 2 m/s 731 mmHg 36%
    19:00 +14°C° 0 mm 2 m/s 732 mmHg 38%
    20:00 +14°C° 0 mm 2 m/s 731 mmHg 40%
    21:00 +13°C° 0 mm 2 m/s 731 mmHg 41%
    22:00 +12°C° 0 mm 3 m/s 731 mmHg 43%
    23:00 +12°C° 0 mm 3 m/s 731 mmHg 42%

    27 Mai, Lundi

    Heure Température Précipitation Vent Pression Humidité
    00:00 +12°C° 0 mm 3 m/s 731 mmHg 42%
    01:00 +12°C° 0 mm 2 m/s 730 mmHg 41%
    02:00 +12°C° 0 mm 2 m/s 730 mmHg 41%
    03:00 +11°C° 0 mm 3 m/s 730 mmHg 42%
    04:00 +10°C° 0 mm 3 m/s 730 mmHg 43%
    05:00 +10°C° 0 mm 3 m/s 730 mmHg 48%
    06:00 +10°C° 0 mm 3 m/s 731 mmHg 53%
    07:00 +9°C° 0 mm 3 m/s 731 mmHg 58%
    08:00 +11°C° 0 mm 4 m/s 731 mmHg 54%
    09:00 +12°C° 0 mm 5 m/s 731 mmHg 49%
    10:00 +13°C° 0 mm 6 m/s 731 mmHg 45%
    11:00 +14°C° 0 mm 5 m/s 731 mmHg 44%
    12:00 +14°C° 0 mm 5 m/s 730 mmHg 42%
    13:00 +14°C° 0 mm 4 m/s 730 mmHg 41%
    14:00 +14°C° 0 mm 4 m/s 730 mmHg 43%
    15:00 +14°C° 0 mm 3 m/s 730 mmHg 46%
    16:00 +14°C° 0 mm 2 m/s 730 mmHg 49%
    17:00 +13°C° 0 mm 2 m/s 731 mmHg 53%
    18:00 +13°C° 0 mm 2 m/s 731 mmHg 56%
    19:00 +11°C° 0 mm 3 m/s 731 mmHg 60%
    20:00 +11°C° 0 mm 3 m/s 731 mmHg 55%
    21:00 +11°C° 0 mm 4 m/s 731 mmHg 51%
    22:00 +9°C° 0 mm 5 m/s 731 mmHg 46%
    23:00 +9°C° 0 mm 6 m/s 731 mmHg 44%

    28 Mai, Mardi

    Heure Température Précipitation Vent Pression Humidité
    00:00 +9°C° 0 mm 7 m/s 731 mmHg 42%
    01:00 +9°C° 0 mm 7 m/s 731 mmHg 40%
    02:00 +9°C° 0 mm 7 m/s 731 mmHg 42%
    03:00 +9°C° 0 mm 6 m/s 731 mmHg 43%
    04:00 +8°C° 0 mm 6 m/s 731 mmHg 44%
    05:00 +8°C° 0 mm 5 m/s 732 mmHg 48%
    06:00 +7°C° 0 mm 4 m/s 732 mmHg 52%
    07:00 +8°C° 0 mm 3 m/s 732 mmHg 55%
    08:00 +10°C° 0 mm 4 m/s 732 mmHg 51%
    09:00 +10°C° 0 mm 6 m/s 732 mmHg 46%
    10:00 +12°C° 0 mm 8 m/s 732 mmHg 41%
    11:00 +13°C° 0 mm 9 m/s 732 mmHg 37%
    12:00 +13°C° 0 mm 10 m/s 732 mmHg 32%
    13:00 +14°C° 0 mm 11 m/s 731 mmHg 27%
    14:00 +14°C° 0 mm 11 m/s 731 mmHg 29%
    15:00 +13°C° 0 mm 10 m/s 732 mmHg 31%
    16:00 +12°C° 0 mm 9 m/s 732 mmHg 32%
    17:00 +12°C° 0 mm 9 m/s 732 mmHg 35%
    18:00 +11°C° 0 mm 8 m/s 733 mmHg 37%
    19:00 +10°C° 0 mm 7 m/s 733 mmHg 40%
    20:00 +9°C° 0 mm 6 m/s 733 mmHg 41%
    21:00 +9°C° 0 mm 6 m/s 734 mmHg 42%
    22:00 +8°C° 0 mm 5 m/s 734 mmHg 43%
    23:00 +8°C° 0 mm 4 m/s 734 mmHg 46%
    Voir plus